OBJECT P, 64889

Orbit data source: Space-Track

You're viewing an Uncataloged Satellite

Recently launched and/or uncataloged satellites may have evolving metadata. Metadata may include but not limited to: Owner, Maufacturer, Bus, Motor, and Mission.

OBJECT P, 64889 is a satellite in SSO that was launched on Fri, 25 Jul 2025 UTC via a SOYUZ-2-1B launch vehicle from the Vostochny Cosmodrome (VOSTO). Unknown objects in Earth's orbit typically refer to objects detected orbiting the Earth but have not yet been identified or cataloged. These objects could be anything from previously untracked satellites, spent rocket stages, debris from satellite collisions, or even natural meteoroids temporarily captured by Earth's gravity.

Loading next visibility...
Identifier
64889, 2025-155P
Orbit
SSO
Country
Flag of TBDTBD
Related business
None
Manufacturer
RATEKS
Mission
Operational spacecraft
Bus & Motor
CUBESAT 3U, Unknown motor
Mass
3 kg wet, 3 kg dry
Launch date (UTC)
2025-07-25 (1 month ago)
Launch vehicle
SOYUZ-2-1B
Launch site
Vostochny Cosmodrome (VOSTO)
Object type
Unknown
Shape & HBR
Unknown
Radar Cross Section
Medium (>0.1 m² and <1 m²)

Expand to show TLE details & history
Last TLE update: 8 hours ago

TLE from 8 hours ago
0 OBJECT P
1 64889U 25155P   25242.92265922  .00008658  00000-0  37700-3 0  9992
2 64889  97.4180 207.6746 0009795 113.9145 246.3118 15.22416922 36482
Epoch: 2025-08-30T22:08Z
TLE epoch observation values (Epoch: 2025-08-30T22:08:37.756Z)
Latitude
-0.00008°
Longitude
-103.83271°
Altitude
504.358 km
Speed
7.611 km/s
True Right ascension
13h 50m 41s
True Declination
0° 00' 00"
Sunlit
Object was in daylight at epoch
Visualization orbit readout
Latitude
Unknown
Longitude
Unknown
Altitude
Unknown
Speed
Unknown
Apparent Right ascension
Unknown
Apparent Declination
Unknown
Sunlit
N/A
Visualization observer readout
Local Sidereal Time
21:39:52
Azimuth
Unknown
Elevation
Unknown
Doppler factor
Unknown
Orbital elements
Apogee altitude
502.249 km
Perigee altitude
488.783 km
Semi-major axis
6,873.653 km
Eccentricity
0.00098
Inclination
97.418°
RAAN
207.6746°
Arg. of periapsis
113.9145°
True anomaly
246.20907°
Mean anomaly
246.3118°
Eccentric anomaly
246.26043°
Mean motion
3.80857 °/min
Orbital period
94.52 mins
BSTAR
0.000377
Loading maneuver chart data...
Computing Atmospheric mass density...
Loading historical data...
Loading historical data...
Loading historical data...
Loading historical data...
Loading historical data...
Loading historical data...
Loading historical data...

Documentation

Showing up to 5 results
|